Regional Weather Roundup
Issued by NWS

Home | Current Version | Previous Version | Graphics & Text | Print | Product List | Glossary On
Versions: 1 2 3 4 5 6 7 8 9 10 11 12 13 14 15 16 17 18 19 20 21 22 23 24 25 26 27 28 29 30 31 32 33 34 35 36 37 38 39 40 41 42 43 44 45 46 47 48 49 50
000
ASUS45 KBOU 051810
RWRCO

WEATHER ROUNDUP FOR COLORADO
NATIONAL WEATHER SERVICE DENVER/BOULDER CO
1200 PM MDT SUN JUL 05 2015

NOTE: "FAIR" INDICATES FEW OR NO CLOUDS BELOW 12000 FEET WITH NO
SIGNIFICANT WEATHER AND/OR OBSTRUCTIONS TO VISIBILITY.

COZ001>005-013-030-031-051900-
...NORTHWEST COLORADO...

CITY           SKY/WX    TMP DP  RH WIND       PRES   REMARKS
CRAIG          LGT RAIN  70  53  54 W10       30.18S
HAYDEN         CLOUDY    70  50  49 W7        30.20S
MEEKER         LGT RAIN  63  56  78 W5        30.22R
MOUNT WERNER   NOT AVBL
STEAMBOAT SPGS CLOUDY    68  52  56 S6        30.22S
WALDEN         CLOUDY    72  48  43 S7        30.25S
$$

COZ006>008-011-051900-
...WEST CENTRAL VALLEYS...

CITY           SKY/WX    TMP DP  RH WIND       PRES   REMARKS
GRAND JUNCTION CLOUDY    71  59  65 W9        30.11F
MONTROSE       CLOUDY    74  56  53 N7        30.18S
EAGLE          PTSUNNY   75  48  38 CALM      30.18F
RIFLE          LGT RAIN  70  59  68 W10       30.14R
DELTA          CLOUDY    79  56  45 S5        30.13S
NUCLA          CLOUDY    72  55  56 NW6       30.22F
$$

COZ017>023-064>068-051900-
...SOUTHWEST COLORADO...

CITY           SKY/WX    TMP DP  RH WIND       PRES   REMARKS
DURANGO        CLOUDY    70  55  59 VRB5      30.24S
CORTEZ         MOSUNNY   76  54  46 CALM      30.19S
PAGOSA SPRINGS CLOUDY    71  48  43 SW5       30.29F
TELLURIDE      CLOUDY    61  53  74 CALM      30.40S
WOLF CREEK PAS NOT AVBL
$$

COZ009-010-012-014-032>034-037-058>063-051900-
...CENTRAL COLORADO...

CITY           SKY/WX    TMP DP  RH WIND       PRES   REMARKS
ASPEN          CLOUDY    69  50  50 NW3       30.25S
BUENA VISTA    PTSUNNY   75  44  33 CALM      30.23S
COPPER MTN     CLOUDY    59  45  58 W13G22    30.56S
BERTHOUD PASS  FAIR      50  39  66 MISG      30.60S
COTTONWOOD PAS NOT AVBL
GUNNISON       PTSUNNY   72  50  46 SW9       30.27F
KREMMLING      CLOUDY    73  45  35 CALM      30.23F
LEADVILLE      CLOUDY    65  42  43 NW7       30.37S
MONARCH PASS   PTSUNNY   55  45  67 W20G29    30.65S
SALIDA         PTSUNNY   80  45  28 SW12G17   30.26S
SUNLIGHT       RAIN      52  50  93 CALM      30.50R VSB 1/2
WILKERSON PASS CLOUDY    61  43  51 W5        30.52S
$$

COZ069>075-051900-
...SAN LUIS VALLEY/SANGRE DE CRISTO MOUNTAINS...

CITY           SKY/WX    TMP DP  RH WIND       PRES   REMARKS
ALAMOSA        MOSUNNY   75  48  38 S6        30.23F
LA VETA PASS   MOSUNNY   63  45  51 MISG      30.43R
SAGUACHE       MOSUNNY   73  50  43 SE9       30.26F
$$

COZ035-036-038>040-051900-
...NORTHERN COLORADO FRONT RANGE...

CITY           SKY/WX    TMP DP  RH WIND       PRES   REMARKS
DENVER INTL AP PTSUNNY   90  46  21 N6        29.99S
DMNS CITY PARK   N/A     90  45  21 SE3G9     29.98S
AURORA         PTSUNNY   87  49  27 SE2       30.01F
FRONT RANGE AP PTSUNNY   90  50  25 MISG      30.01S
ERIE MUNI ARPT PTSUNNY   91  42  18 E6        29.96S
BOULDER MUN AP PTSUNNY   90  46  22 E6        29.97S
CENTENNIAL     PTSUNNY   87  47  24 NE7       30.03S
BROOMFIELD     PTSUNNY   88  48  25 E3        30.01R
FORT COLLINS   MOSUNNY   90  55  31 E7        29.94F
LONGMONT       MOSUNNY   95  46  18 E7        29.96S
$$

COZ041-046-047-076>085-087-088-051900-
...PIKES PEAK/PALMER DIVIDE AND SOUTHERN FOOTHILLS...

CITY           SKY/WX    TMP DP  RH WIND       PRES   REMARKS
COLO. SPRINGS  CLOUDY    81  52  36 S7        30.07R
A. F. ACADEMY  CLOUDY    82  50  32 SW6       30.08R
ELLICOTT       CLOUDY   N/A N/A N/A SW7       30.05S
FALCON         CLOUDY    82  45  27 CALM      30.13S
FORT CARSON    CLOUDY    81  53  36 E2        30.04S
LIMON          MOSUNNY   87  53  31 S12       30.00S
MONUMENT HILL  PTSUNNY   79  50  36 W3        30.14S
TRINIDAD       PTSUNNY   86  49  27 VRB5      30.05S
$$

COZ042>045-048>051-090-091-051900-
...NORTHEAST COLORADO...

CITY           SKY/WX    TMP DP  RH WIND       PRES   REMARKS
GREELEY ARPT   MOSUNNY   91  54  27 CALM      29.94F
AKRON          MOSUNNY   90  50  25 SW5       29.94S
BURLINGTON     SUNNY     96  50  20 S21G28    29.92S
WRAY           SUNNY     99  45  15 SE10      29.86S
STERLING       MOSUNNY   91  63  38 SW9         N/A
HOLYOKE        SUNNY     95  55  26 SW7       29.86F
FORT MORGAN    MOSUNNY   91  51  25 SW5       29.94S
$$

COZ086-089-092>099-051900-
...SOUTHEAST COLORADO...

CITY           SKY/WX    TMP DP  RH WIND       PRES   REMARKS
PUEBLO         PTSUNNY   91  51  25 SW7       29.94S
LA JUNTA       MOSUNNY   94  53  25 S7        29.91F
LAMAR          MOSUNNY   95  57  27 VRB3      29.87F
SPRINGFIELD      N/A     90  58  33 S23G36    29.96F
$$


USA.gov is the U.S. government's official web portal to all federal, state and local government web resources and services.